TimeCDT,TemperatureF,Dew PointF,Humidity,Sea Level PressureIn,VisibilityMPH,Wind Direction,Wind SpeedMPH,Gust SpeedMPH,PrecipitationIn,Events,Conditions,WindDirDegrees,DateUTC
12:55 AM,63.3,52.0,66,29.99,10.0,SSW,13.8,-,N/A,,Clear,200,2011-10-25 05:55:00
1:55 AM,63.1,52.2,67,29.98,10.0,SSW,17.3,-,N/A,,Clear,200,2011-10-25 06:55:00
2:55 AM,62.8,52.0,68,29.96,10.0,SSW,17.3,-,N/A,,Clear,200,2011-10-25 07:55:00
3:55 AM,61.2,51.4,70,29.95,10.0,South,19.6,-,N/A,,Clear,190,2011-10-25 08:55:00
4:55 AM,61.5,51.4,69,29.93,10.0,SSW,18.4,26.5,N/A,,Clear,200,2011-10-25 09:55:00
5:55 AM,62.1,51.4,68,29.91,10.0,South,20.7,26.5,N/A,,Partly Cloudy,190,2011-10-25 10:55:00
6:55 AM,61.3,51.6,70,29.91,10.0,South,19.6,26.5,N/A,,Partly Cloudy,190,2011-10-25 11:55:00
7:55 AM,61.0,52.2,73,29.91,10.0,South,19.6,25.3,N/A,,Scattered Clouds,190,2011-10-25 12:55:00
8:55 AM,63.7,52.7,67,29.89,10.0,SSW,21.9,28.8,N/A,,Mostly Cloudy,200,2011-10-25 13:55:00
9:55 AM,68.4,53.2,58,29.86,10.0,SSW,29.9,36.8,N/A,,Mostly Cloudy,200,2011-10-25 14:55:00
10:55 AM,72.5,54.1,52,29.85,10.0,SSW,32.2,40.3,N/A,,Mostly Cloudy,200,2011-10-25 15:55:00
11:55 AM,77.7,55.6,46,29.81,10.0,SSW,29.9,41.4,N/A,,Mostly Cloudy,200,2011-10-25 16:55:00
12:55 PM,80.4,56.5,44,29.76,10.0,SSW,29.9,41.4,N/A,,Mostly Cloudy,200,2011-10-25 17:55:00
1:55 PM,84.4,55.0,36,29.73,10.0,SW,33.4,46.0,N/A,,Mostly Cloudy,220,2011-10-25 18:55:00
2:55 PM,84.0,55.2,37,29.70,10.0,SSW,36.8,44.9,N/A,,Clear,210,2011-10-25 19:55:00
3:55 PM,83.5,54.3,37,29.69,10.0,SW,29.9,38.0,N/A,,Partly Cloudy,220,2011-10-25 20:55:00
4:55 PM,82.4,56.3,41,29.71,10.0,SW,26.5,40.3,N/A,,Clear,220,2011-10-25 21:55:00
5:55 PM,80.6,56.7,44,29.72,10.0,SW,20.7,33.4,N/A,,Clear,220,2011-10-25 22:55:00
6:55 PM,78.4,56.8,47,29.74,10.0,SSW,20.7,26.5,N/A,,Partly Cloudy,210,2011-10-25 23:55:00
7:55 PM,77.0,56.8,50,29.75,10.0,SSW,19.6,-,N/A,,Clear,210,2011-10-26 00:55:00
8:55 PM,74.8,57.2,54,29.79,10.0,WSW,10.4,-,N/A,,Clear,240,2011-10-26 01:55:00
9:55 PM,70.9,43.9,38,29.81,10.0,West,8.1,-,N/A,,Partly Cloudy,260,2011-10-26 02:55:00
10:55 PM,66.6,47.7,51,29.85,10.0,WNW,9.2,-,N/A,,Scattered Clouds,300,2011-10-26 03:55:00
11:55 PM,63.1,46.6,55,29.86,10.0,NW,9.2,-,N/A,,Scattered Clouds,310,2011-10-26 04:55:00